Home   Weather   Tulsa   Past weeks

Flag for USA Past Weather in Tulsa, Oklahoma, USA — Yesterday and Last 2 Weeks

Now
69 °F

Clear.


Feels Like: 69 °F
Forecast: 52 / 71 °F
Wind: 9 mph from North

Location: Tulsa International Airport

Current Time: Sep 28, 2016 at 8:47:11 PM

Latest Report: Sep 28, 2016 at 7:53 PM


Visibility: 10 mi

Pressure: 30.10 "Hg

Humidity: 47%

Dew Point: 48 °F

Location of TulsaLocation

Past Weather in Tulsa — Graph

°F

Tulsa Temperature Yesterday

Maximum temperature yesterday: 83 °F (at 2:53 PM)
Minimum temperature yesterday: 50 °F (at 6:53 AM)
Average temperature yesterday: 68 °F

High & Low Weather Summary for the Past Weeks

 TemperatureHumidityPressure
High97 °F (Sep 19, 4:53 PM)100% (Sep 14, 6:53 AM)30.26 "Hg (Sep 14, 6:53 AM)
Low50 °F (Sep 27, 6:53 AM)22% (Sep 26, 4:53 PM)29.84 "Hg (Sep 24, 5:53 PM)
Average77 °F71%30.00 "Hg
* Reported Sep 13 6:53 PM — Sep 28 6:53 PM, Tulsa, Weather by CustomWeather, © 2016

Note: Actual official high and low records may vary slightly from our data, if they occured in-between our weather recording intervals... More about our weather records

Advertising

Tulsa Weather History for the Previous 24 Hours

Scroll right to see more
 ConditionsComfort  
Time TempWeatherWind HumidityBarometerVisibility
6:53 PM
Wed, Sep 28
73 °FSunny.15 mph40%30.06 "Hg10 mi
5:53 PM78 °FSunny.17 mph28%30.04 "Hg10 mi
4:53 PM81 °FSunny.15 mph22%30.02 "Hg10 mi
3:53 PM83 °FSunny.13 mph26%30.01 "Hg10 mi
2:53 PM84 °FSunny.22 mph29%30.00 "Hg10 mi
1:53 PM83 °FSunny.13 mph33%30.00 "Hg10 mi
12:53 PM83 °FSunny.16 mph34%29.99 "Hg10 mi
11:53 AM82 °FSunny.12 mph40%29.98 "Hg10 mi
10:53 AM79 °FSunny.13 mph44%29.97 "Hg10 mi
9:53 AM74 °FSunny.10 mph48%29.95 "Hg10 mi
8:53 AM70 °FSunny.7 mph51%29.94 "Hg10 mi
7:53 AM65 °FSunny.5 mph61%29.92 "Hg10 mi
6:53 AM66 °FClear.10 mph56%29.90 "Hg10 mi
5:53 AM66 °FClear.6 mph54%29.90 "Hg10 mi
4:53 AM65 °FClear.5 mph56%29.90 "Hg10 mi
3:53 AM65 °FClear.8 mph59%29.90 "Hg10 mi
2:53 AM68 °FClear.5 mph51%29.91 "Hg10 mi
1:53 AM69 °FClear.6 mph49%29.92 "Hg10 mi
12:53 AM70 °FClear.6 mph49%29.93 "Hg10 mi
11:53 PM
Tue, Sep 27
71 °FClear.12 mph47%29.93 "Hg10 mi
10:53 PM73 °FClear.12 mph44%29.93 "Hg10 mi
9:53 PM72 °FClear.8 mph46%29.93 "Hg10 mi
8:53 PM74 °FClear.8 mph41%29.93 "Hg10 mi
Weather by CustomWeather, © 2016

See weather overviewHow to use our weather pages